Regional Weather Roundup
Issued by NWS

Home | Current Version | Previous Version | Text Only | Print | Product List | Glossary On
Versions: 1 2 3 4 5 6 7 8 9 10 11 12 13 14 15 16 17 18 19 20 21 22 23 24 25 26 27 28 29 30 31 32 33 34 35 36 37 38 39 40 41 42 43 44 45 46 47 48 49 50
313
ASUS45 KPSR 252210
RWRAZ

ARIZONA HOURLY REGIONAL WEATHER ROUNDUP
NATIONAL WEATHER SERVICE PHOENIX AZ
300 PM MST SUN FEB 25 2018

NOTE: FAIR INDICATES FEW OR NO CLOUDS BELOW 12,000 FEET WITH NO
SIGNIFICANT WEATHER AND/OR OBSTRUCTIONS TO VISIBILITY.

AZZ001>003-036-252300-
NORTHWEST ARIZONA

CITY           SKY/WX    TMP DP  RH WIND       PRES   REMARKS
BULLHEAD CITY  SUNNY     59   0   9 N16       30.22F
KINGMAN        SUNNY     49   3  15 CALM      30.19F
$$

AZZ004>008-015-016-018-252300-
NORTH CENTRAL ARIZONA

CITY           SKY/WX    TMP DP  RH WIND       PRES   REMARKS
GRAND CANYON   SUNNY     36  15  42 MISG      30.15R
WILLIAMS       SUNNY     37  10  32 W13G18    30.12R WCI  29
PRESCOTT       SUNNY     46   5  18 CALM      30.15F
FLAGSTAFF      SUNNY     40   3  21 CALM      30.13S
PAGE           SUNNY     42  10  27 VRB3      30.17F
$$

AZZ009>014-017-252300-
NORTHEAST ARIZONA

CITY           SKY/WX    TMP DP  RH WIND       PRES   REMARKS
WINSLOW        SUNNY     47   6  18 CALM      30.16F
SAINT JOHNS    SUNNY     43   5  20 NW6       30.14F
WINDOW ROCK    SUNNY     40   2  20 W7G17     30.11S
SHOW LOW       SUNNY     39   3  22 VRB7      30.16S WCI  34
$$

AZZ540-542>544-546-548-252300-
GREATER PHOENIX AREA

CITY           SKY/WX    TMP DP  RH WIND       PRES   REMARKS
PHOENIX        SUNNY     62   9  12 W7        30.13F
BUCKEYE        SUNNY     63   3   9 W9        30.15F
GLENDALE       SUNNY     63   5  10 CALM      30.16F
LUKE AFB       SUNNY     62   7  11 SE5       30.13F
DEER VALLEY    SUNNY     60   6  11 S6        30.13F
SCOTTSDALE     SUNNY     62  13  14 CALM      30.14F
MESA-FALCON    SUNNY     61  10  13 SW5       30.14F
MESA-GATEWAY   SUNNY     63  10  13 NW8       30.15F
CHANDLER       SUNNY     61   9  12 MISG      30.15F
$$

AZZ539-553-252300-
SOUTHWEST MARICOPA COUNTY AND PINAL COUNTY

CITY           SKY/WX    TMP DP  RH WIND       PRES   REMARKS
CASA GRANDE    NOT AVBL
GILA BEND      FAIR      62   4   9 NW5       30.14F
$$

AZZ503-504-507>509-252300-
SOUTHEAST ARIZONA

CITY           SKY/WX    TMP DP  RH WIND       PRES   REMARKS
TUCSON         SUNNY     60  12  15 NW6       30.14F
DAVIS-MONTHAN  SUNNY     61  13  15 W5        30.12F
RYAN FIELD     SUNNY     59  14  17 NW8       30.15F
NOGALES        SUNNY     60   5  11 VRB5      30.11F
SIERRA VISTA   SUNNY     59   8  13 E7        30.13S
DOUGLAS        SUNNY     60   9  13 N9        30.12F
SAFFORD        SUNNY     59   6  12 NW12      30.10F
$$

AZZ532-252300-
SOUTHWEST ARIZONA

CITY           SKY/WX    TMP DP  RH WIND       PRES   REMARKS
YUMA           SUNNY     68   9  10 N9        30.17F
$$

CAZ041-043-047-048-061-525>527-560>570-252300-
SOUTHERN CALIFORNIA

CITY           SKY/WX    TMP DP  RH WIND       PRES   REMARKS
DOWNTOWN L.A.  SUNNY     67  20  16 VRB3      30.14F
L.A. AIRPORT   SUNNY     68  31  25 W10       30.15F
SAN DIEGO      SUNNY     66  36  32 NW13      30.13F
BURBANK        SUNNY     66  21  18 VRB6      30.13F
ONTARIO        SUNNY     66  19  16 N5        30.13F
RIVERSIDE      SUNNY     68  16  13 VRB3      30.13F
PALM SPRINGS   SUNNY     67  10  11 CALM      30.19F
EL CENTRO NAS  FAIR      67  13  12 E6        30.20F
IMPERIAL       FAIR      67  11  11 VRB5      30.18F
BLYTHE         SUNNY     65  10  11 N8G23     30.19F
NEEDLES        SUNNY     62   3   9 NE9G18    30.21F
$$

NVZ020-UTZ003-252300-
SOUTHERN NEVADA-UTAH

CITY           SKY/WX    TMP DP  RH WIND       PRES   REMARKS
LAS VEGAS      SUNNY     54   8  16 CALM      30.21F
SALT LAKE CITY PTSUNNY   34  11  38 S14       30.18F WCI  25
$$

NMZ009-TXZ055-252300-
NEW MEXICO-WEST TEXAS

CITY           SKY/WX    TMP DP  RH WIND       PRES   REMARKS
ALBUQUERQUE    SUNNY     43   2  18 NW21G26   30.13S
EL PASO        SUNNY     61   3  10 W14       30.07S
$$


........................KEY........................
SKY/WX - SKY CONDITION/WEATHER
TMP    - TEMPERATURE IN FAHRENHEIT
DP     - DEW POINT IN FAHRENHEIT
RH     - RELATIVE HUMIDITY IN PERCENT
WIND   - DIRECTION AND SPEED IN MILES PER HOUR (MPH)
VRB    - VARIABLE WIND DIRECTION
PRES   - MEAN SEA LEVEL PRESSURE IN INCHES OF MERCURY
         F - FALLING PRESSURE   R - RISING PRESSURE
         S - STEADY PRESSURE
VSB    - VISIBILITY IN MILES
HX     - HEAT INDEX IN FAHRENHEIT
WCI    - WIND CHILL INDEX IN FAHRENHEIT
TC     - TEMPERATURE IN CELSIUS WHICH IS ALSO KNOWN AS
         TEMPERATURE IN CENTIGRADE
AFB    - AIR FORCE BASE
         LUKE AFB IS LUKE AIR FORCE BASE
         DAVIS-MONTHAN IS DAVIS-MONTHAN AIR FORCE BASE
NAS    - NAVAL AIR STATION
         EL CENTRO NAS IS EL CENTRO NAVAL AIR STATION
N/A    - NOT AVAILABLE





USA.gov is the U.S. government's official web portal to all federal, state and local government web resources and services.